Wind_Speed
32 34 37 39 40 40 36 32 31 32 35 36 36 37 36 35 33 31 36 34 39 39 43 42 39 37 36 35 35 35 36 38 39 41 41 41 42 41 39 37 35 33 31
37 38 39 42 43 43 41 41 37 36 36 39 39 39 38 37 35 35 44 47 47 39 38 35 37 38 38 36 35 36 36 34 37 41 44 44 44 43 41 41 40 39 37
38 38 38 41 42 41 43 44 43 39 38 39 44 42 41 43 40 35 43 39 36 37 31 34 36 35 32 33 34 35 38 38 38 38 41 44 46 44 42 42 42 42 41
38 38 41 42 44 44 47 47 45 43 40 41 43 44 42 43 46 50 39 40 36 34 29 32 36 36 34 33 34 35 37 36 35 32 37 36 37 40 42 42 42 43 43
39 41 43 43 44 47 49 49 50 47 41 43 43 45 45 45 46 47 41 48 43 35 32 33 34 34 34 35 34 33 34 36 39 41 41 37 38 39 39 42 44 45 44
43 42 44 44 47 48 49 50 52 49 42 41 45 46 46 46 47 48 43 46 42 38 38 37 36 35 35 34 35 35 34 34 32 33 37 45 45 43 42 43 42 47 46
45 44 44 45 47 50 51 52 52 50 45 42 44 47 49 48 47 44 43 49 41 39 42 43 39 38 37 35 36 32 32 31 30 29 31 27 31 40 43 42 46 48 45
46 46 46 46 48 49 53 55 55 49 43 42 44 47 49 48 46 44 44 45 46 41 40 41 40 39 35 34 32 29 30 31 30 26 25 25 25 24 22 27 33 30 28
47 48 46 46 47 49 52 54 53 48 42 43 46 46 47 46 42 40 42 43 42 39 38 39 41 40 38 36 35 35 33 33 32 31 30 28 26 26 26 25 26 31 30
49 48 48 48 48 50 52 52 46 43 42 44 46 45 43 42 40 39 39 39 39 40 40 38 39 40 40 39 35 31 34 34 33 33 32 31 33 33 33 32 31 30 31
52 50 51 50 50 51 51 50 46 43 42 45 46 42 38 38 40 37 36 35 37 41 39 37 40 41 41 40 40 39 37 36 36 36 36 35 35 37 38 38 39 37 35
53 52 52 53 52 52 48 46 44 42 43 45 46 40 36 36 36 34 33 34 40 36 38 38 39 42 41 42 41 41 41 40 40 40 41 40 39 39 39 40 40 40 42
56 55 54 55 53 51 47 44 42 42 45 46 46 41 38 42 37 41 40 42 40 40 40 39 41 42 42 43 43 43 43 43 42 42 42 43 43 42 42 43 45 46 46
58 56 56 56 53 49 46 44 43 44 45 46 45 47 46 43 43 46 42 43 38 37 39 40 43 41 41 44 44 44 43 45 44 44 44 44 44 45 45 46 47 47 47
58 57 57 56 51 47 45 43 43 41 43 39 42 35 38 45 48 47 40 40 48 41 39 40 40 41 42 43 43 44 44 44 44 45 46 46 47 47 48 49 50 51 52
60 59 57 53 48 47 44 41 39 41 42 37 36 35 35 33 34 34 40 45 41 42 42 46 44 43 43 44 44 44 44 46 47 47 47 48 50 50 49 49 50 51 53
59 57 55 50 47 45 42 38 37 36 42 37 38 37 34 31 31 31 31 33 42 45 49 42 43 49 46 44 43 43 47 48 49 52 52 52 50 52 53 53 57 60 62
58 56 50 45 44 41 38 36 36 41 37 43 33 34 32 31 30 28 28 29 30 31 35 39 45 54 48 50 51 51 52 53 53 56 57 54 56 55 59 63 61 60 59
54 48 42 39 39 37 36 38 36 40 36 35 33 35 33 27 27 26 26 25 24 25 28 31 33 34 38 43 45 47 48 49 49 51 51 56 57 55 55 52 51 49 47
46 42 40 38 38 38 39 39 39 36 32 33 36 29 29 30 31 28 27 25 24 26 27 27 27 28 29 31 33 35 38 39 42 43 43 43 42 42 42 42 43 45 46
39 35 35 35 37 39 40 40 36 30 29 25 26 31 30 31 28 27 28 29 28 28 28 27 27 26 28 30 32 33 33 35 35 36 37 37 38 39 40 42 44 45 45
37 34 31 32 30 27 27 28 32 26 27 30 30 29 26 31 27 29 31 30 29 27 27 26 26 28 29 29 30 31 32 34 34 36 37 38 39 39 40 41 41 40 39
34 32 29 27 25 25 19 22 23 21 26 28 24 30 31 30 28 26 29 29 27 27 26 25 27 29 28 27 29 30 31 32 33 34 35 36 37 38 37 37 35 34 34
32 28 26 24 23 24 23 22 18 17 18 20 22 24 25 29 31 30 29 27 28 27 26 27 28 29 27 26 27 29 29 31 32 32 33 33 33 33 32 32 31 32 33
31 27 24 26 27 24 25 27 23 22 22 21 24 26 28 29 32 31 28 26 26 26 27 27 28 27 27 27 28 29 29 29 28 28 28 28 28 27 28 29 30 31 31
30 29 27 27 26 27 26 25 23 24 24 24 25 26 28 29 28 27 27 26 26 27 27 27 26 27 26 26 27 27 26 25 25 25 24 24 25 27 28 29 29 28 29
Wind_Direction
298 300 302 303 306 306 307 303 298 288 280 279 275 276 268 258 264 256 258 257 249 239 244 249 252 260 259 261 260 261 260 260 258 255 251 250 252 252 252 255 258 259 259
300 300 297 296 300 301 301 302 301 294 283 279 277 275 273 270 265 249 246 258 249 247 249 248 254 259 263 260 257 259 260 259 258 257 257 253 251 250 252 253 255 257 259
298 297 297 297 294 295 298 298 295 292 286 279 276 273 270 271 269 267 253 248 249 249 251 251 252 251 253 257 255 255 258 260 260 260 263 260 254 250 251 252 255 257 258
295 295 298 297 293 291 294 297 295 292 286 279 275 272 270 267 269 271 269 276 268 256 259 260 252 248 250 250 248 250 255 259 260 255 251 251 255 256 252 253 255 257 259
295 295 296 298 296 293 292 292 293 293 288 280 274 269 268 266 265 264 265 262 260 253 250 250 252 252 246 245 243 244 250 260 267 262 250 250 255 256 258 259 259 259 259
294 293 295 295 295 294 294 294 295 294 288 280 276 269 265 265 264 263 259 258 251 250 250 249 250 250 248 246 246 247 250 252 257 260 261 256 257 256 258 255 258 259 258
294 293 293 295 295 294 292 294 295 294 288 280 274 269 268 267 263 258 259 263 266 257 255 257 251 249 247 244 249 246 248 248 251 254 257 259 261 257 255 254 255 254 257
294 294 297 297 296 294 293 293 294 293 284 276 271 266 266 267 264 259 260 256 257 255 249 248 247 244 244 244 243 246 247 246 247 247 253 257 259 264 269 265 256 245 254
301 301 300 298 295 293 292 292 292 291 282 275 270 267 263 267 262 259 256 253 251 249 248 247 245 242 237 238 247 250 251 252 250 249 250 251 251 254 258 258 254 251 249
303 303 301 298 296 293 292 292 291 286 280 275 271 265 262 262 260 258 255 251 250 251 246 241 244 242 241 244 245 246 249 252 253 254 252 255 256 255 254 257 259 260 258
304 303 301 299 295 292 291 290 288 283 280 275 270 262 261 261 261 256 252 252 249 248 247 241 241 243 243 244 245 243 246 250 254 257 256 255 256 257 255 255 256 255 256
302 300 297 293 291 289 287 285 283 281 277 274 267 258 255 255 253 249 247 248 248 246 246 247 242 244 244 245 246 248 249 251 251 254 256 255 255 256 256 257 257 257 256
302 299 294 292 290 286 283 280 279 277 274 273 265 257 252 250 248 251 251 248 246 248 245 244 248 245 246 247 248 250 251 253 253 255 256 256 258 259 260 262 262 262 261
302 299 293 291 287 283 279 276 274 272 273 274 268 264 252 254 255 254 259 246 247 252 252 250 250 249 248 249 249 250 251 255 256 256 257 258 260 261 262 262 262 262 263
299 295 289 285 284 278 274 272 272 271 274 272 271 267 271 259 261 258 259 262 251 241 247 251 250 253 254 255 255 253 254 254 256 258 259 260 262 262 263 265 266 269 269
295 290 287 284 280 274 273 271 270 271 270 264 268 265 265 266 266 270 263 263 250 254 251 252 249 252 255 256 256 256 259 261 262 262 262 263 264 264 266 267 268 270 271
291 288 285 282 276 271 270 267 262 271 268 265 266 262 260 265 267 268 263 262 257 261 250 251 252 251 251 255 256 259 258 260 262 263 266 265 265 265 266 269 270 271 273
289 286 282 278 271 272 270 268 261 253 263 253 265 251 265 267 267 268 270 271 266 261 259 259 258 255 255 256 257 259 260 261 259 262 265 264 266 267 270 275 273 271 272
285 283 279 275 272 270 266 257 264 258 258 262 252 258 260 264 257 272 268 269 270 268 264 260 259 261 260 259 261 263 264 264 265 265 266 265 265 267 267 269 271 272 273
284 281 279 275 271 268 265 263 267 260 258 249 247 248 252 261 265 267 261 266 272 277 273 270 267 266 267 267 266 264 262 263 264 265 264 265 266 267 268 270 270 272 272
282 281 280 275 272 267 263 266 258 254 246 241 240 244 245 253 259 257 261 268 271 273 271 269 269 270 271 269 267 265 266 266 267 266 268 269 269 268 270 270 270 270 269
282 284 282 277 269 268 266 268 253 256 251 253 246 239 243 250 257 260 262 267 271 270 271 272 269 274 277 272 267 268 267 266 268 269 270 270 270 269 269 268 268 268 270
286 287 279 267 265 272 266 253 253 247 244 241 240 239 248 250 254 259 267 263 267 270 271 272 274 279 276 272 270 270 269 268 269 269 269 270 270 269 268 268 270 272 273
281 284 272 264 261 250 250 250 251 237 229 230 239 243 248 252 256 258 256 257 262 266 267 271 275 276 274 273 272 271 269 269 270 270 270 270 270 270 271 273 275 275 275
279 272 267 257 250 253 250 253 252 250 246 248 247 246 246 249 252 253 254 262 263 262 266 271 275 271 269 272 271 270 269 269 269 270 269 269 271 274 276 277 278 278 280
275 262 258 254 253 250 253 251 254 257 249 247 249 248 249 247 247 251 255 261 260 265 271 272 266 266 269 269 268 269 269 267 266 266 268 271 273 277 280 281 281 281 279
Height
5806 5803 5800 5797 5794 5792 5790 5787 5785 5785 5783 5783 5782 5780 5777 5774 5773 5775 5777 5778 5776 5774 5775 5777 5780 5781 5782 5783 5785 5786 5787 5787 5788 5790 5792 5794 5795 5797 5798 5799 5800 5801 5803
5800 5797 5795 5792 5788 5786 5783 5780 5778 5777 5776 5774 5772 5772 5772 5770 5768 5766 5768 5768 5768 5766 5767 5768 5771 5773 5774 5774 5777 5778 5779 5780 5780 5781 5783 5784 5786 5788 5790 5792 5793 5794 5796
5793 5791 5788 5785 5782 5779 5775 5773 5771 5769 5767 5765 5764 5762 5762 5763 5761 5758 5758 5757 5756 5757 5759 5760 5762 5763 5766 5767 5769 5771 5772 5772 5772 5774 5774 5775 5777 5780 5783 5784 5786 5787 5788
5788 5784 5781 5778 5774 5771 5769 5765 5762 5760 5757 5755 5754 5753 5752 5751 5752 5749 5749 5747 5747 5748 5751 5753 5754 5754 5755 5758 5760 5762 5764 5763 5764 5767 5768 5768 5769 5771 5774 5776 5778 5780 5780
5780 5776 5773 5770 5766 5763 5760 5757 5754 5750 5748 5746 5743 5741 5742 5741 5740 5741 5741 5741 5739 5740 5741 5743 5745 5746 5747 5749 5751 5753 5755 5756 5755 5756 5759 5761 5762 5763 5765 5767 5769 5771 5772
5770 5767 5763 5760 5756 5753 5749 5745 5742 5739 5736 5734 5733 5732 5730 5730 5729 5729 5730 5731 5730 5731 5733 5734 5736 5738 5739 5740 5743 5745 5746 5748 5748 5747 5748 5750 5752 5754 5755 5757 5759 5761 5762
5759 5754 5751 5747 5744 5741 5737 5734 5730 5727 5724 5722 5720 5720 5719 5719 5719 5719 5719 5719 5719 5722 5725 5727 5728 5730 5731 5732 5734 5736 5738 5740 5740 5740 5740 5741 5743 5744 5745 5746 5749 5750 5752
5751 5747 5742 5737 5733 5729 5726 5722 5718 5715 5713 5711 5709 5708 5709 5708 5708 5708 5708 5709 5710 5712 5713 5716 5719 5721 5723 5725 5726 5728 5730 5732 5733 5733 5734 5734 5735 5737 5737 5738 5740 5742 5745
5741 5737 5732 5727 5722 5717 5712 5709 5706 5703 5702 5700 5698 5697 5697 5697 5697 5698 5698 5698 5700 5701 5704 5707 5709 5712 5714 5716 5718 5719 5722 5724 5726 5726 5727 5728 5729 5730 5731 5733 5734 5735 5737
5730 5724 5720 5714 5709 5704 5699 5696 5693 5692 5690 5689 5687 5686 5685 5687 5687 5688 5688 5688 5690 5692 5695 5697 5701 5702 5705 5707 5709 5712 5713 5716 5717 5718 5719 5720 5723 5724 5724 5726 5726 5728 5729
5716 5711 5706 5701 5695 5690 5685 5682 5681 5680 5678 5677 5676 5676 5675 5675 5677 5677 5678 5679 5680 5682 5685 5687 5690 5694 5696 5699 5701 5703 5705 5707 5709 5709 5711 5712 5713 5715 5717 5717 5719 5720 5721
5703 5697 5692 5686 5680 5676 5672 5670 5669 5668 5667 5666 5665 5665 5665 5667 5667 5668 5669 5669 5669 5673 5676 5679 5681 5684 5687 5690 5691 5693 5695 5696 5697 5700 5701 5703 5705 5706 5707 5708 5709 5710 5711
5690 5683 5677 5671 5666 5661 5659 5657 5656 5656 5655 5654 5653 5654 5654 5655 5656 5658 5659 5659 5660 5663 5666 5668 5671 5674 5676 5679 5682 5683 5685 5687 5688 5690 5691 5693 5694 5695 5697 5698 5699 5699 5700
5674 5669 5663 5657 5651 5647 5645 5644 5643 5643 5643 5643 5643 5642 5643 5644 5645 5647 5649 5649 5651 5653 5656 5658 5661 5663 5665 5668 5670 5673 5675 5677 5678 5679 5681 5682 5683 5685 5686 5687 5688 5689 5689
5658 5652 5646 5641 5637 5634 5632 5631 5632 5632 5633 5633 5632 5632 5633 5634 5634 5637 5638 5640 5641 5642 5645 5648 5651 5653 5655 5658 5659 5662 5664 5666 5667 5668 5670 5671 5672 5674 5675 5676 5676 5676 5676
5643 5637 5631 5626 5623 5621 5619 5619 5621 5622 5622 5623 5624 5624 5625 5625 5625 5626 5629 5630 5632 5633 5635 5637 5640 5643 5646 5648 5649 5652 5653 5655 5656 5657 5658 5660 5661 5662 5663 5663 5662 5662 5661
5626 5621 5616 5612 5609 5607 5606 5608 5609 5611 5612 5612 5613 5615 5616 5616 5617 5619 5619 5620 5622 5623 5624 5626 5628 5631 5634 5636 5638 5640 5641 5643 5644 5645 5646 5648 5649 5649 5649 5649 5649 5648 5647
5609 5605 5601 5598 5595 5594 5595 5597 5598 5600 5601 5602 5603 5605 5607 5608 5609 5610 5611 5612 5612 5613 5614 5615 5617 5619 5621 5624 5625 5628 5629 5630 5632 5633 5634 5634 5635 5635 5634 5634 5633 5632 5631
5595 5591 5587 5584 5583 5583 5585 5586 5586 5588 5590 5591 5594 5597 5598 5600 5602 5603 5603 5603 5603 5604 5605 5606 5606 5607 5609 5611 5613 5614 5615 5616 5617 5618 5618 5619 5620 5619 5620 5619 5618 5618 5618
5581 5578 5575 5572 5571 5572 5573 5574 5575 5577 5580 5581 5584 5588 5590 5593 5594 5595 5596 5596 5596 5596 5597 5597 5598 5599 5599 5600 5601 5602 5604 5604 5605 5606 5607 5607 5607 5607 5607 5606 5606 5606 5605
5568 5565 5563 5561 5561 5561 5562 5563 5564 5568 5570 5573 5575 5578 5581 5584 5586 5588 5588 5588 5588 5589 5590 5590 5591 5592 5592 5592 5593 5594 5594 5594 5595 5596 5596 5595 5596 5596 5596 5595 5595 5594 5594
5556 5554 5552 5551 5552 5552 5553 5553 5555 5558 5561 5564 5567 5570 5572 5576 5578 5579 5580 5580 5580 5581 5583 5583 5583 5584 5584 5584 5584 5584 5585 5585 5586 5586 5586 5586 5586 5585 5585 5584 5584 5582 5582
5548 5545 5544 5544 5545 5546 5546 5547 5549 5550 5553 5556 5558 5561 5565 5568 5570 5571 5572 5572 5573 5574 5575 5575 5575 5575 5575 5575 5576 5577 5577 5577 5577 5577 5576 5576 5576 5575 5574 5574 5573 5572 5571
5537 5537 5537 5537 5538 5540 5541 5542 5543 5544 5547 5550 5552 5555 5557 5560 5562 5563 5564 5565 5566 5567 5568 5568 5568 5568 5568 5568 5569 5569 5569 5569 5569 5568 5568 5567 5567 5566 5566 5565 5563 5563 5562
5530 5530 5530 5530 5531 5533 5534 5536 5537 5540 5541 5543 5546 5547 5549 5551 5554 5555 5557 5558 5559 5560 5561 5561 5561 5561 5562 5562 5562 5562 5562 5561 5561 5561 5560 5560 5559 5559 5558 5557 5555 5554 5553
5521 5521 5522 5523 5524 5526 5528 5529 5531 5532 5534 5537 5539 5540 5542 5544 5546 5548 5550 5551 5553 5554 5554 5554 5554 5555 5555 5555 5555 5555 5555 5554 5554 5554 5553 5553 5552 5552 5551 5549 5547 5546 5545